Погода в Ивановке

Украина / Черниговская область     52°08′35″N   32°41′55″E
темп.,
°C
ветер,
м/с
пор.,
м/с
влажн.,
%
обл.,
%
осадки,
мм/ч
давл.,
гПа
погр.,
м
10 мая, пн
пн1000:00+4сз34715 0.0 102660
03:00+3ссз33705 0.0 102733
06:00+3с22725 0.0 102833
09:00+9с34580 0.0 1028416
12:00+13с34440 0.0 10281385
15:00+14ссв45420 0.0 10271563
18:00+14св46540 0.0 10261280
21:00+8ссв47660 0.0 102694
11 мая, вт
вт1100:00+6св48780 0.0 1026118
03:00+5ссв41173100 0.0 1026220
06:00+7ссв5126698 0.0 1024303
09:00+11ссв7116799 0.0 1024443
12:00+15ссв710677 0.0 1022580
15:00+19св810625 0.0 10201139
18:00+17всв8127632 0.7 10201056
21:00+11в6128775 0.9 1022646
12 мая, ср
ср1200:00+8в513900 0.0 1023446
03:00+6всв510944 0.0 1023315
06:00+5в4119316 0.0 1024439
09:00+11в587414 0.0 1023652
12:00+14в675896 0.1 10201706
15:00+12в4671100 1.0 1018812
18:00+10всв5787100 0.8 1017392
21:00+9в4892100 1.1 1016389
13 мая, чт
чт1300:00+8в489495 0.1 1014469
03:00+8вюв389686 0.2 1014408
06:00+8юв5790100 0.2 1014601
09:00+8юв4589100 0.2 1015406
12:00+12ююв5771100 0.0 10161131
15:00+16ююв67555 0.1 10151639
18:00+16юв586350 0.0 10141287
21:00+13в4680100 0.0 101494
14 мая, пт
пт1400:00+13вюв51289100 0.4 1013286
03:00+13вюв6159398 2.1 1012444
06:00+12вюв61395100 2.4 1011372
09:00+16юв6989100 4.1 1010599
12:00+17ююв5989100 1.1 1010863
15:00+18ю6880100 1.2 1010997
18:00+19ю587798 0.4 1010887
21:00+15ююз3389100 0.4 101137